Belen, NM

1:16 AM MDT on April 30, 2017 (GMT -0600)
Belen

Weather History for KE80 - January, 2013

Change the Weather History Date:

Monday, January 7, 2013

  Actual Average (KABQ) Record (KABQ)
Temperature  
Mean Temperature 36 °F -  
Max Temperature 48 °F 42 °F 62 °F (1927)
Min Temperature 24 °F 20 °F -17 °F (1971)
Degree Days  
Heating Degree Days 29    
Moisture  
Dew Point 11 °F    
Average Humidity 42    
Maximum Humidity 58    
Minimum Humidity 30    
Precipitation  
Precipitation 0.00 in - - ()
Sea Level Pressure  
Sea Level Pressure 30.02 in    
Wind  
Wind Speed 4 mph (NNW)    
Max Wind Speed 10 mph    
Max Gust Speed -    
Visibility 10 miles    
Events      
Averages and records for this station are not official NWS values.
T = Trace of Precipitation, MM = Missing Value Source: NWS Daily Summary

Daily Weather History Graph

Daily Weather History Graph

Search for Another Location

Airport or City:

Trip Planner

Search our weather history database for the weather conditions in past years. The results will help you decide how hot, cold, wet, or windy it might be!

Date:

Astronomy

Jan. 07, 2013 Rise Set
Actual Time 7:15 AM MST 5:12 PM MST
Civil Twilight 6:47 AM MST 5:40 PM MST
Nautical Twilight 6:16 AM MST 6:11 PM MST
Astronomical Twilight 5:45 AM MST 6:42 PM MST
Moon 2:44 AM MST (1/7) 1:24 PM MST (1/7)
Length of Visible Light 10h 53m
Length of Day
9h 57m
Waning Crescent, 22% of the Moon is Illuminated
Jan 7
Waning Crescent
Jan 11
New
Jan 18
First Quarter
Jan 26
Full
Feb 3
Last Quarter

Hourly Weather History & Observations

Time (MST) Temp. Windchill Dew Point Humidity Pressure Visibility Wind Dir Wind Speed Gust Speed Precip Events Conditions
12:15 AM 31.5 °F 28.1 °F 8.2 °F 38% 30.11 in 10.0 mi East 3.5 mph - N/A   Scattered Clouds
12:35 AM 30.4 °F 26.9 °F 7.5 °F 38% 30.10 in 10.0 mi North 3.5 mph - N/A   Scattered Clouds
12:55 AM 29.8 °F 24.9 °F 6.8 °F 38% 30.10 in 10.0 mi NNW 4.6 mph - N/A   Mostly Cloudy
1:15 AM 29.7 °F 24.7 °F 6.8 °F 38% 30.09 in 10.0 mi NW 4.6 mph - N/A   Scattered Clouds
1:35 AM 29.8 °F 24.9 °F 6.8 °F 38% 30.09 in 10.0 mi NNW 4.6 mph - N/A   Scattered Clouds
1:55 AM 29.3 °F 23.2 °F 6.8 °F 39% 30.09 in 10.0 mi NW 5.8 mph - N/A   Scattered Clouds
2:15 AM 30.2 °F 23.4 °F 7.3 °F 38% 30.10 in 10.0 mi WNW 6.9 mph - N/A   Scattered Clouds
2:35 AM 29.3 °F 23.2 °F 7.5 °F 40% 30.10 in 10.0 mi WNW 5.8 mph - N/A   Clear
2:55 AM 27.9 °F 21.5 °F 6.8 °F 41% 30.09 in 10.0 mi WNW 5.8 mph - N/A   Clear
3:15 AM 26.4 °F 20.9 °F 6.4 °F 43% 30.09 in 10.0 mi NNW 4.6 mph - N/A   Clear
3:35 AM 24.1 °F 16.0 °F 5.2 °F 45% 30.08 in 10.0 mi NNE 6.9 mph - N/A   Clear
3:55 AM 25.3 °F 19.7 °F 6.8 °F 45% 30.08 in 10.0 mi NNE 4.6 mph - N/A   Clear
4:15 AM 27.0 °F 19.5 °F 7.7 °F 44% 30.07 in 10.0 mi NE 6.9 mph - N/A   Clear
4:35 AM 27.5 °F 22.2 °F 9.5 °F 47% 30.06 in 10.0 mi NNE 4.6 mph - N/A   Clear
4:55 AM 27.5 °F 20.2 °F 9.9 °F 48% 30.05 in 10.0 mi NNE 6.9 mph - N/A   Clear
5:35 AM 26.1 °F 18.4 °F 5.9 °F 42% 30.06 in 10.0 mi WNW 6.9 mph - N/A   Clear
5:55 AM 26.4 °F 18.0 °F 6.6 °F 43% 30.07 in 10.0 mi WNW 8.1 mph - N/A   Clear
6:15 AM 27.3 °F 20.9 °F 7.5 °F 43% 30.07 in 10.0 mi NW 5.8 mph - N/A   Clear
6:35 AM 28.4 °F 23.3 °F 8.6 °F 43% 30.08 in 10.0 mi NW 4.6 mph - N/A   Clear
6:55 AM 26.4 °F - 7.9 °F 46% 30.08 in 10.0 mi Calm Calm - N/A   Clear
7:15 AM 26.4 °F 22.4 °F 8.2 °F 46% 30.07 in 10.0 mi NNW 3.5 mph - N/A   Clear
7:35 AM 25.9 °F - 8.4 °F 48% 30.08 in 10.0 mi Calm Calm - N/A   Clear
8:15 AM 27.1 °F 23.2 °F 7.9 °F 44% 30.08 in 10.0 mi WNW 3.5 mph - N/A   Clear
8:35 AM 29.5 °F - 7.7 °F 40% 30.08 in 10.0 mi Calm Calm - N/A   Clear
8:55 AM 31.1 °F 25.4 °F 8.1 °F 38% 30.08 in 10.0 mi West 5.8 mph - N/A   Clear
9:15 AM 31.5 °F 26.8 °F 7.9 °F 37% 30.08 in 10.0 mi WNW 4.6 mph - N/A   Clear
9:35 AM 32.4 °F 29.1 °F 8.6 °F 37% 30.09 in 10.0 mi WNW 3.5 mph - N/A   Clear
9:55 AM 34.5 °F 31.6 °F 9.5 °F 35% 30.09 in 10.0 mi West 3.5 mph - N/A   Clear
10:15 AM 37.4 °F 32.8 °F 10.8 °F 33% 30.08 in 10.0 mi NW 5.8 mph - N/A   Clear
10:35 AM 38.7 °F 34.3 °F 11.1 °F 32% 30.08 in 10.0 mi West 5.8 mph - N/A   Clear
10:55 AM 40.3 °F 35.5 °F 11.5 °F 31% 30.07 in 10.0 mi NW 6.9 mph - N/A   Clear
11:15 AM 41.9 °F 39.0 °F 12.7 °F 31% 30.05 in 10.0 mi North 4.6 mph - N/A   Clear
11:35 AM 42.4 °F 40.7 °F 13.6 °F 31% 30.04 in 10.0 mi WNW 3.5 mph - N/A   Clear
11:55 AM 43.7 °F - 14.9 °F 31% 30.02 in 10.0 mi Calm Calm - N/A   Clear
12:15 PM 44.6 °F - 15.4 °F 31% 30.01 in 10.0 mi Calm Calm - N/A   Clear
12:35 PM 45.1 °F - 16.3 °F 32% 29.99 in 10.0 mi Calm Calm - N/A   Clear
12:55 PM 46.0 °F - 16.7 °F 31% 29.98 in 10.0 mi Calm Calm - N/A   Clear
1:15 PM - - - N/A% 29.97 in 10.0 mi NNW 3.5 mph - N/A   Clear
1:35 PM - - - N/A% 29.95 in 10.0 mi North 3.5 mph - N/A   Clear
1:55 PM - - - N/A% 29.95 in 10.0 mi Calm Calm - N/A   Clear
2:15 PM - - - N/A% 29.95 in 10.0 mi Calm Calm - N/A   Clear
2:35 PM 48.6 °F - 18.1 °F 30% 29.95 in 10.0 mi NNW 4.6 mph - N/A   Clear
2:55 PM - - - N/A% 29.95 in 10.0 mi Calm Calm - N/A   Clear
3:15 PM - - - N/A% 29.95 in 10.0 mi Calm Calm - N/A   Clear
3:35 PM - - - N/A% 29.95 in 10.0 mi Calm Calm - N/A   Clear
4:15 PM - - - N/A% 29.95 in 10.0 mi Calm Calm - N/A   Clear
4:35 PM - - - N/A% 29.95 in 10.0 mi Calm Calm - N/A   Clear
4:55 PM - - - N/A% 29.95 in 10.0 mi Calm Calm - N/A   Clear
5:15 PM - - - N/A% 29.95 in 10.0 mi Calm Calm - N/A   Clear
5:35 PM 45.0 °F 43.5 °F 18.0 °F 34% 29.95 in 10.0 mi North 3.5 mph - N/A   Clear
5:55 PM 37.8 °F 35.3 °F 14.5 °F 39% 29.95 in 10.0 mi North 3.5 mph - N/A   Clear
6:15 PM 38.1 °F 35.7 °F 15.4 °F 40% 29.96 in 10.0 mi North 3.5 mph - N/A   Clear
6:35 PM 34.7 °F 28.8 °F 14.7 °F 44% 29.96 in 10.0 mi NNW 6.9 mph - N/A   Clear
6:55 PM 32.7 °F 26.4 °F 13.5 °F 45% 29.96 in 10.0 mi NNW 6.9 mph - N/A   Clear
7:15 PM - - - N/A% 29.96 in 10.0 mi NNW 6.9 mph - N/A   Clear
7:35 PM 34.0 °F 27.2 °F 16.0 °F 48% 29.96 in 10.0 mi NW 8.1 mph - N/A   Clear
7:55 PM 32.7 °F 26.4 °F 15.3 °F 49% 29.96 in 10.0 mi WNW 6.9 mph - N/A   Clear
8:35 PM 33.3 °F 26.4 °F 14.7 °F 47% 29.96 in 10.0 mi NW 8.1 mph - N/A   Clear
8:55 PM 31.6 °F 24.4 °F 13.8 °F 48% 29.97 in 10.0 mi NW 8.1 mph - N/A   Clear
9:15 PM 29.1 °F - 13.1 °F 51% 29.96 in 10.0 mi Calm Calm - N/A   Clear
9:35 PM 31.5 °F 24.9 °F 14.9 °F 50% 29.96 in 10.0 mi NNW 6.9 mph - N/A   Clear
9:55 PM 29.3 °F 24.3 °F 14.4 °F 54% 29.95 in 10.0 mi NNW 4.6 mph - N/A   Clear
10:15 PM 29.5 °F - 14.2 °F 53% 29.95 in 10.0 mi Calm Calm - N/A   Clear
10:35 PM 27.5 °F 21.1 °F 14.2 °F 57% 29.95 in 10.0 mi NW 5.8 mph - N/A   Clear
10:55 PM 27.7 °F 18.2 °F 14.5 °F 58% 29.95 in 10.0 mi NW 10.4 mph - N/A   Clear
11:15 PM 28.8 °F 21.7 °F 14.9 °F 56% 29.95 in 10.0 mi NW 6.9 mph - N/A   Clear
11:35 PM 28.8 °F 20.2 °F 14.9 °F 56% 29.95 in 10.0 mi NW 9.2 mph - N/A   Clear
11:55 PM 27.9 °F 19.8 °F 14.9 °F 58% 29.95 in 10.0 mi NW 8.1 mph - N/A   Clear